User: anonymous   Login
Location: Unspecified
(0.0000°N, 0.0000°E)
Time: 14:01:33
(UTC+02:00)
Language:

Milstar 3 Cent rocket - Orbit

View from above orbital plane
View from above orbital plane
View from above satellite
View from above satellite

Ground track
Ground track

The orbit data is extracted from the following two-line orbital elements,

1 25725U 99023B   17081.82827286 0.00000000  00000-0  00000-0 0    07
2 25725  28.3201 357.8626 2384418 359.2067   0.7927  9.67222205    08
Epoch (UTC): 22 March 2017 19:52:42
Eccentricity: 0.2384418
inclination: 28.3201°
perigee height: 708 km
apogee height: 5145 km
right ascension of ascending node: 357.8626°
argument of perigee: 359.2067°
revolutions per day: 9.67222205
mean anomaly at epoch: 0.7927°
orbit number at epoch: 0

The dashed part of the orbit path shows where the satellite is in the earth's shadow,  

DLR